Printer-friendly version

IAU Minor Planet Center

Minor Planet Center

MPEC 2002-T34 : 2002 LM60

The following Minor Planet Electronic Circular may be linked-to from your own Web pages, but must not otherwise be redistributed electronically.


Read MPEC 2002-T33 Read MPEC 2002-T35


M.P.E.C. 2002-T34                                Issued 2002 Oct. 7, 03:23 UT

     The Minor Planet Electronic Circulars contain information on unusual
         minor planets and routine data on comets.  They are published
   on behalf of Commission 20 of the International Astronomical Union by the
          Minor Planet Center, Smithsonian Astrophysical Observatory,
                          Cambridge, MA 02138, U.S.A.

             Prepared using the Tamkin Foundation Computer Network

                              MPC@CFA.HARVARD.EDU
          URL http://cfa-www.harvard.edu/iau/mpc.html  ISSN 1523-6714

                                   2002 LM60

Observations:
     K02L60M   1982 07 17.39256 14 53 24.02 -11 31 32.0                      260
     K02L60M 1 1983 05 17.28958 15 01 34.88 -11 55 38.3                      675
     K02L60M 1 1983 05 18.33681 15 01 30.07 -11 55 16.5                      675
     K02L60M  C1996 07 15.28449 16 04 09.88 -14 04 49.6                      608
     K02L60M  C2000 06 21.52671 16 26 26.41 -14 36 30.9                      608
     K02L60M  C2000 07 06.34631 16 25 27.29 -14 35 13.3                      608
     K02L60M  C2000 08 06.27947 16 24 08.66 -14 35 40.8                      608
     K02L60M  C2001 06 14.28237 16 32 15.51 -14 43 50.6                      644
     K02L60M  C2001 06 14.30510 16 32 15.40 -14 43 50.2                      644
     K02L60M  C2001 08 05.25574 16 29 22.00 -14 42 03.2                      608
     K02L60M  C2001 08 05.27712 16 29 21.97 -14 42 03.2                      608
     K02L60M* C2002 06 04.23727 16 38 20.71 -14 51 18.2          18.6        644
     K02L60M  C2002 06 04.30006 16 38 20.42 -14 51 17.4          18.6        644
     K02L60M  C2002 06 04.36255 16 38 20.12 -14 51 16.7          18.6        644
     K02L60M 7C2002 06 05.21993 16 38 16.04 -14 51 08.0          18.8 R      675
     K02L60M 7C2002 06 05.27570 16 38 15.77 -14 51 07.5          18.8 R      675
     K02L60M 7C2002 06 13.31813 16 37 37.88 -14 49 54.0          18.5 R      675
     K02L60M 7C2002 06 13.37136 16 37 37.63 -14 49 53.6          18.6 R      675
     K02L60M 7C2002 06 13.42518 16 37 37.37 -14 49 53.2          18.5 R      675
     K02L60M 7C2002 06 14.20063 16 37 33.80 -14 49 46.8          18.5 R      675
     K02L60M 7C2002 06 14.29523 16 37 33.34 -14 49 46.0          18.5 R      675
     K02L60M 7C2002 06 14.32814 16 37 33.19 -14 49 45.8          18.5 R      675
     K02L60M  C2002 06 26.22279 16 36 40.04 -14 48 24.5                      644
     K02L60M  C2002 06 26.30779 16 36 39.68 -14 48 23.8                      644
     K02L60M  C2002 06 26.37545 16 36 39.43 -14 48 23.2                      644

Observer details:
260 Siding Spring Observatory-DSS.  Image located by G. V. Williams and C. L.
    Marsden, measured by G. V. Williams.  1.2-m Schmidt.
608 Haleakala-NEAT/MSSS.  Observers E. F. Helin, S. Pravdo, K. Lawrence,
    D. Rabinowitz.  Images located and measured by M. E. Brown, C. A. Trujillo
    and J.-L. Margot.  1.0-m f/2.2 GEODSS telescope + CCD.
644 Palomar Mountain/NEAT.  Observers C. A. Trujillo, M. E. Brown, E. F. Helin,
    S. Pravdo, K. Lawrence, M. Hicks.  Images located and measured by
    M. E. Brown, C. A. Trujillo and J.-L. Margot.  1.2-m Schmidt + CCD.
675 Palomar Mountain.  (1) Observer C. T. Kowal.  Trail located and measured
    by M. E. Brown, C. A. Trujillo and J.-L. Margot.  1.2-m Schmidt.
    (7) Observers C. A. Trujillo, A. B. Jordan, C. J. Conselice.  Measurer
    C. A. Trujillo.  1.5-m reflector + CCD.

Orbital elements:
2002 LM60
Epoch 2002 Nov. 22.0 TT = JDT 2452600.5                 MPC
M 263.32417              (2000.0)            P               Q
n   0.00347310     Peri.  162.85255     +0.98920982     +0.14491931
a  43.1841920      Node   188.89794     -0.14535254     +0.95241715
e   0.0357187      Incl.    7.99079     -0.01834609     +0.26814168
P 284              H    2.6           G   0.15           U   4
Residuals in seconds of arc
820717 260  0.6-  1.5+    010805 608  0.8+  0.0     020613 675  0.1-  0.0
830517 675  1.5+  1.5-    010805 608  0.9+  0.1+    020614 675  0.1+  0.0
830518 675  0.7-  0.1+    020604 644  0.4-  0.2-    020614 675  0.1-  0.0
960715 608  0.3-  0.2-    020604 644  0.2-  0.0     020614 675  0.0   0.0
000621 608  0.2-  0.0     020604 644  0.2-  0.1+    020626 644  0.0   0.1+
000706 608  0.4-  0.0     020605 675  0.3-  0.2+    020626 644  0.1+  0.3+
000806 608  0.6-  0.3-    020605 675  0.3-  0.1+    020626 644  0.8+  0.5+
010614 644  0.0   0.5-    020613 675  0.0   0.1+
010614 644  0.0   0.3-    020613 675  0.0   0.0

Ephemeris:
2002 LM60                a,e,i = 43.18, 0.04, 8                  q = 41.642
Date    TT    R. A. (2000) Decl.     Delta      r     Elong.  Phase     V
2002 10 03    16 35.54   -14 58.7   43.912   43.422    60.1     1.1    19.2
2002 10 13    16 36.21   -15 01.3   44.049   43.421    50.5     1.0    19.2
2002 10 23    16 36.99   -15 04.0   44.167   43.420    40.9     0.9    19.2
2002 11 02    16 37.88   -15 06.6   44.263   43.419    31.4     0.7    19.1

2003 01 11    16 44.95   -15 18.8   44.172   43.413    39.0     0.8    19.1
2003 01 21    16 45.78   -15 19.0   44.053   43.412    48.9     1.0    19.2
2003 01 31    16 46.49   -15 18.9   43.914   43.411    58.7     1.1    19.2
2003 02 10    16 47.07   -15 18.3   43.760   43.410    68.7     1.2    19.2
2003 02 20    16 47.50   -15 17.4   43.594   43.409    78.6     1.3    19.2
2003 03 02    16 47.78   -15 16.1   43.423   43.408    88.5     1.3    19.2
2003 03 12    16 47.89   -15 14.4   43.251   43.407    98.4     1.3    19.1
2003 03 22    16 47.84   -15 12.5   43.083   43.407   108.3     1.2    19.1
2003 04 01    16 47.64   -15 10.4   42.925   43.406   118.2     1.2    19.1
2003 04 11    16 47.29   -15 08.2   42.781   43.405   128.0     1.0    19.1
2003 04 21    16 46.81   -15 05.9   42.655   43.404   137.7     0.9    19.1
2003 05 01    16 46.22   -15 03.6   42.551   43.403   147.4     0.7    19.1
2003 05 11    16 45.53   -15 01.4   42.471   43.402   156.9     0.5    19.0
2003 05 21    16 44.79   -14 59.3   42.419   43.401   165.8     0.3    19.0
2003 05 31    16 44.00   -14 57.5   42.395   43.400   172.3     0.2    19.0
2003 06 10    16 43.21   -14 55.9   42.400   43.399   169.7     0.2    19.0
2003 06 20    16 42.44   -14 54.6   42.434   43.398   161.4     0.4    19.0
2003 06 30    16 41.71   -14 53.7   42.495   43.397   152.3     0.6    19.0
2003 07 10    16 41.05   -14 53.1   42.582   43.396   142.9     0.8    19.1
2003 07 20    16 40.48   -14 53.0   42.692   43.396   133.4     1.0    19.1
2003 07 30    16 40.03   -14 53.3   42.821   43.395   123.8     1.1    19.1
2003 08 09    16 39.72   -14 54.1   42.967   43.394   114.3     1.2    19.1
2003 08 19    16 39.54   -14 55.2   43.124   43.393   104.7     1.3    19.1
2003 08 29    16 39.52   -14 56.7   43.289   43.392    95.2     1.3    19.2
2003 09 08    16 39.65   -14 58.5   43.457   43.391    85.6     1.3    19.2
2003 09 18    16 39.94   -15 00.6   43.622   43.390    76.0     1.3    19.2
2003 09 28    16 40.38   -15 02.9   43.780   43.389    66.4     1.2    19.2
2003 10 08    16 40.96   -15 05.4   43.927   43.388    56.8     1.1    19.2
2003 10 18    16 41.67   -15 07.9   44.058   43.387    47.2     1.0    19.2
2003 10 28    16 42.50   -15 10.5   44.169   43.386    37.6     0.8    19.1

Brian G. Marsden             (C) Copyright 2002 MPC           M.P.E.C. 2002-T34

Read MPEC 2002-T33 Read MPEC 2002-T35


Our Web policy. Index to the CBAT/MPC/ICQ pages.


Valid HTML 4.01!